Location: Shepherdstown, WV
(39.4326°N, 77.8042°W)
Time: 13:54:14
(UTC-04:00)

Vanguard 1 Rocket - Pass Details

Date: 09 August 2021
Orbit: 650 x 4226 km, 34.3° (Epoch: 20 September)

Event Time Altitude Azimuth Distance (km) Brightness Sun altitude
Rises 07:13:09 0° 217° (SW) 8,044 11.8 9.2°
Reaches altitude 10° 07:18:51 10° 212° (SSW) 7,251 11.6 10.3°
Maximum altitude 07:42:38 46° 148° (SSE) 4,773 11.5 14.8°
Drops below altitude 10° 08:01:06 10° 83° (E) 5,824 14.1 18.4°
Sets 08:04:58 0° 78° (ENE) 6,439 13.4 19.1°
